Regional Weather Roundup
Issued by NWS

Home | Current Version | Previous Version | Text Only | Print | Product List | Glossary On
Versions: 1 2 3 4 5 6 7 8 9 10 11 12 13 14 15 16 17 18 19 20 21 22 23 24 25 26 27 28 29 30 31 32 33 34 35 36 37 38 39 40 41 42 43 44 45 46 47 48 49 50
000
ASUS43 KTOP 130108
RWRKS

WEATHER ROUNDUP FOR KANSAS
NATIONAL WEATHER SERVICE GOODLAND KS
800 PM CDT SAT JUL 12 2014

NOTE:  "FAIR" INDICATES FEW OR NO CLOUDS BELOW 12,000 FEET WITH NO
SIGNIFICANT WEATHER AND/OR OBSTRUCTIONS TO VISIBILITY.

KSZ001>006-013>018-027>032-041>047-130200-
NORTHWEST KANSAS

CITY           SKY/WX    TMP DP  RH WIND       PRES   REMARKS
GOODLAND       SUNNY     81  63  54 N10       30.12S
HAYS           PTSUNNY   79  66  65 NW9       30.00R THUNDER
HILL CITY      SUNNY     85  69  58 NE16      30.03R
RUSSELL        PTCLDY    86  68  54 S10       29.94S
$$

KSZ061>065-074>080-084>089-130200-
SOUTHWEST KANSAS

CITY           SKY/WX    TMP DP  RH WIND       PRES   REMARKS
DODGE CITY     SUNNY     89  58  34 S14       30.00R
ELKHART          N/A     90  56  31 S13         N/A
GARDEN CITY    PTSUNNY   85  62  46 N9        30.02R
GREAT BEND     CLEAR     88  66  48 S9        29.95R
LIBERAL        SUNNY     91  55  29 S15       30.02S
PRATT          CLEAR     88  61  40 S12       30.00S
$$

KSZ066>073-081>083-090>101-130200-
SOUTHEAST KANSAS

CITY           SKY/WX    TMP DP  RH WIND       PRES   REMARKS
CHANUTE        CLEAR     86  69  56 S10       30.00F
COFFEYVILLE    CLEAR     88  69  53 S10       30.00F
HUTCHINSON     CLEAR     90  65  43 S9        29.97F
MEDICINE LODGE   N/A     91  65  41 S7        29.97S
NEWTON         CLEAR     90  64  43 S8        30.02S
PARSONS        CLEAR     86  69  56 S6        30.02F
WICHITA INTL   PTCLDY    88  64  44 S9        29.97F
WICHITA JABRA  CLEAR     88  67  49 S7        29.98F
WINFIELD       CLEAR     87  62  43 S8        30.00S
$$

KSZ007>012-019>026-033>040-048>060-102>105-130200-
NORTHEAST KANSAS

CITY           SKY/WX    TMP DP  RH WIND       PRES   REMARKS
CONCORDIA      PTCLDY    89  67  47 S8        29.92S
EMPORIA        CLEAR     86  67  52 S9        29.98F
LAWRENCE       CLEAR     89  69  51 S10       29.95S
MANHATTAN      CLEAR     92  67  43 SW12      29.92F HX  95
MARYSVILLE     CLEAR     88  70  55 SW3       29.92S
OLATHE IND     CLEAR     87  69  54 S13       29.98S
OLATHE EXE     CLEAR     85  70  60 S7        29.97F
SALINA         CLEAR     93  65  39 S14       29.94S HX  95
TOPEKA BILLARD CLEAR     91  67  44 SW9       29.94S
TOPEKA FORBES  CLEAR     89  67  47 SW10      29.95F
$$


USA.gov is the U.S. government's official web portal to all federal, state and local government web resources and services.